SCP
0 0 0 0 0 0 0 0 0 0 0 0 0 0 0 0 0 0 0 0 0 0 0 0 0 0 0 0 0 0 0 0 0 0 0 0 0 0 0 0 1 1 1
0 0 0 0 0 0 0 0 0 0 0 0 0 0 0 0 0 0 0 0 0 0 0 0 0 0 0 0 0 0 0 0 0 0 0 0 0 0 0 0 0 0 0
0 0 0 0 0 0 0 0 0 0 0 0 0 0 0 0 0 0 0 0 0 0 0 0 0 0 0 0 0 0 0 0 0 0 0 0 0 0 0 0 0 0 0
0 0 0 0 0 0 0 0 0 0 0 0 0 0 0 0 0 0 0 0 0 0 0 0 0 0 0 0 0 0 0 0 0 0 0 0 0 0 0 0 0 0 0
0 0 0 0 0 0 0 0 0 0 0 0 0 0 0 0 0 0 0 0 0 0 0 0 0 0 0 0 0 0 0 0 0 0 0 0 0 0 0 0 0 0 0
0 0 0 0 0 0 0 0 0 0 0 0 0 0 0 0 0 0 0 0 0 0 0 0 0 0 0 0 0 0 0 0 0 0 0 0 0 0 0 0 0 0 0
0 0 0 0 0 0 0 0 0 0 0 0 0 0 0 0 0 0 0 0 0 0 0 0 0 0 0 0 0 0 0 0 0 0 0 0 0 0 0 0 0 0 0
0 0 0 0 0 0 0 0 0 0 0 0 0 0 0 0 0 0 0 0 0 0 0 0 0 0 0 0 0 0 0 0 0 0 0 0 0 0 0 0 0 0 0
0 0 0 0 0 0 0 0 0 0 0 0 0 0 0 0 0 0 0 0 0 0 0 0 0 0 0 0 0 0 0 0 0 0 0 0 0 0 0 0 0 0 0
0 0 0 0 0 0 0 0 0 0 0 0 0 0 0 0 0 0 0 0 0 0 0 0 0 0 0 0 0 0 0 0 0 0 0 0 0 0 0 0 0 0 0
0 0 0 0 0 0 0 0 0 0 0 0 0 0 0 0 0 0 0 0 0 0 0 0 0 0 0 0 0 0 0 0 0 0 0 0 0 0 0 0 0 0 0
0 0 0 0 0 0 0 0 0 0 0 0 0 0 0 0 0 0 0 0 0 0 0 0 0 0 0 0 0 0 0 0 0 0 0 0 0 0 0 0 0 0 0
0 0 0 0 0 0 0 0 0 0 0 0 0 0 0 0 0 0 0 0 0 0 0 0 0 0 0 0 0 0 0 0 0 0 0 0 0 0 0 0 0 0 0
0 0 0 0 0 0 0 0 0 0 0 0 0 0 0 0 0 0 0 0 0 0 0 0 0 0 0 0 0 0 0 0 0 0 0 0 0 0 0 0 0 0 0
0 0 0 0 0 0 0 0 0 0 0 0 0 0 0 0 0 0 0 0 0 0 0 0 0 0 0 0 0 0 0 0 0 0 0 0 0 0 0 0 0 0 0
0 0 0 0 0 0 0 0 0 0 0 0 0 0 0 0 0 0 0 0 0 0 0 0 0 0 0 0 0 0 0 0 0 0 0 0 0 0 0 0 0 0 0
0 0 0 0 0 0 0 0 0 0 0 0 0 0 0 0 0 0 0 0 0 0 0 0 0 0 0 0 0 0 0 0 0 0 0 0 0 0 0 0 0 0 0
0 0 0 0 0 0 0 0 0 0 0 0 0 0 0 0 0 0 0 0 0 0 0 0 0 0 0 0 0 0 0 0 0 0 0 0 0 0 0 0 0 0 0
0 0 0 0 0 0 0 0 0 0 0 0 0 0 0 0 0 0 0 0 0 0 0 0 0 0 0 0 0 0 0 0 0 0 0 0 0 0 0 0 0 0 0
0 0 0 0 0 0 0 0 0 0 0 0 0 0 0 0 0 0 0 0 0 0 0 0 0 0 0 0 0 0 0 0 0 0 0 0 0 0 0 0 0 0 0
0 0 0 0 0 0 0 0 0 0 0 0 0 0 0 0 0 0 0 0 0 0 0 0 0 0 0 0 0 0 0 0 0 0 0 0 0 0 0 0 0 0 0
0 0 0 0 0 0 0 0 0 0 0 0 0 0 0 0 0 0 0 0 0 0 0 0 0 0 0 0 0 0 0 0 0 0 0 0 0 0 0 0 0 0 0
0 0 0 0 0 0 0 0 0 0 0 0 0 0 0 0 0 0 0 0 0 0 0 0 0 0 0 0 0 0 0 0 0 0 0 0 0 0 0 0 0 0 0
0 0 0 0 0 0 0 0 0 0 0 0 0 0 0 0 0 0 0 0 0 0 0 0 0 0 0 0 0 0 0 0 0 0 0 0 0 0 0 0 0 0 0
0 0 0 0 0 0 0 0 0 0 0 0 0 0 0 0 0 0 0 0 0 0 0 0 0 0 0 0 0 0 0 0 0 0 0 0 0 0 0 0 0 0 0
0 0 0 0 0 0 0 0 0 0 0 0 0 0 0 0 0 0 0 0 0 0 0 0 0 0 0 0 0 0 0 0 0 0 0 0 0 0 0 0 0 0 0
Wind_Speed
7 6 5 5 5 4 4 4 4 3 3 3 3 3 3 3 2 2 3 3 3 3 3 3 4 3 3 3 2 3 3 4 5 5 3 4 5 6 6 5 5 5 5
7 6 6 5 5 5 5 5 4 4 4 4 4 3 3 3 3 3 4 4 4 5 5 4 5 3 4 3 3 4 4 5 5 7 4 4 5 5 6 6 5 5 5
7 7 6 6 6 6 6 5 5 4 4 4 4 4 4 4 4 4 5 5 5 6 5 5 5 4 5 4 4 5 4 4 5 5 6 3 4 4 4 5 6 5 6
8 7 7 7 7 7 6 5 5 5 4 4 4 5 5 4 5 5 5 5 5 5 5 6 6 6 7 6 5 6 5 5 5 5 5 5 4 4 3 4 5 4 5
8 8 9 7 6 6 5 5 5 5 5 5 4 4 4 4 5 5 5 6 5 6 6 6 6 8 10 8 6 6 6 5 5 5 5 4 5 4 4 3 5 6 6
10 10 8 7 7 7 6 6 5 5 5 4 5 5 5 5 7 8 6 6 6 6 7 7 7 8 9 10 10 10 8 7 7 6 6 6 8 6 5 5 4 4 5
9 8 7 8 7 7 7 6 6 6 5 5 5 5 6 8 10 10 10 7 7 7 8 7 7 6 7 7 8 10 9 11 12 9 9 9 8 7 6 6 6 6 6
9 8 8 8 8 7 6 6 6 5 5 5 6 6 6 8 10 11 10 7 7 8 9 9 8 9 8 7 7 7 8 8 9 8 9 10 9 8 7 7 7 7 7
9 9 9 9 8 7 7 7 6 5 5 5 5 6 7 9 11 11 9 5 7 9 9 9 9 10 11 10 7 8 9 9 9 11 12 12 12 12 9 6 6 6 7
11 10 8 8 8 8 8 7 5 5 6 6 6 7 8 9 11 12 9 5 7 8 7 8 11 12 12 10 8 8 10 10 8 8 8 9 9 10 11 10 8 8 7
7 6 6 7 7 7 6 5 5 5 5 6 7 7 7 9 11 13 11 6 7 7 7 7 7 11 13 12 10 9 12 10 8 8 8 8 7 7 8 8 8 8 9
5 5 5 6 6 5 5 5 4 5 5 6 6 7 6 7 9 11 13 12 10 8 8 7 8 10 11 12 9 11 13 10 7 7 7 8 8 8 7 7 9 10 10
5 4 4 4 4 4 5 5 4 5 5 5 5 6 7 6 7 12 13 14 14 10 9 11 11 11 10 10 12 13 10 7 7 7 9 9 8 8 7 6 7 8 10
4 3 3 3 3 3 3 4 4 5 5 6 6 7 7 6 6 6 6 7 9 9 9 9 10 11 9 10 10 8 7 7 7 8 9 8 7 6 7 6 6 5 5
3 3 2 3 3 3 4 5 6 7 7 7 7 7 7 8 9 10 7 6 6 6 4 4 5 5 6 6 7 7 6 6 7 7 8 8 7 7 7 6 5 5 6
2 2 2 2 2 2 3 4 8 9 11 13 13 11 9 12 14 13 12 13 12 8 5 6 7 7 8 8 7 7 6 7 7 7 7 7 8 7 7 6 6 6 7
3 2 2 2 2 2 3 4 6 6 8 12 14 14 15 15 15 15 14 11 10 8 7 8 8 8 8 8 7 7 7 7 6 6 7 8 7 7 7 7 6 7 7
1 1 1 2 3 3 4 5 5 6 6 6 7 10 12 14 14 14 11 6 5 6 7 8 9 8 8 8 7 7 7 7 6 7 7 7 7 7 7 8 7 8 8
1 1 1 2 3 4 4 4 5 6 6 7 6 7 8 9 10 10 7 5 7 7 7 8 8 8 8 8 7 7 7 7 7 7 7 8 7 7 8 8 8 9 9
1 3 3 3 3 3 4 4 5 5 6 6 6 7 5 4 4 5 4 6 7 7 7 8 8 8 8 8 7 7 7 7 8 7 7 7 7 7 8 9 8 8 8
1 3 4 3 3 4 4 5 5 5 6 6 7 8 7 6 7 7 7 6 7 8 8 8 7 7 7 7 7 8 9 7 7 7 7 6 7 7 7 7 8 8 8
1 2 2 3 3 4 4 5 5 6 7 8 7 7 8 6 6 7 7 7 7 7 7 7 7 7 7 7 7 7 7 8 7 6 6 6 6 7 7 7 7 7 7
2 3 3 3 3 5 5 5 5 6 7 7 7 7 6 6 6 7 8 8 7 6 6 6 6 7 6 6 6 6 7 7 6 6 6 6 6 6 6 7 8 7 8
2 3 4 4 4 4 5 6 6 6 7 7 7 7 6 6 7 8 8 7 7 6 6 5 6 8 10 7 5 5 6 6 6 5 8 7 7 7 6 7 7 8 8
3 4 4 4 5 5 6 6 7 7 7 7 6 6 7 7 7 7 7 6 7 7 7 6 5 6 8 9 7 5 5 6 6 5 5 6 8 8 8 8 7 7 8
4 5 5 5 5 5 5 6 7 7 6 6 6 6 6 6 7 7 6 6 6 6 6 5 6 7 7 6 6 5 4 5 5 5 5 5 7 7 7 6 8 7 8
Wind_Direction
177 176 172 177 177 176 187 200 200 202 202 207 215 220 231 240 232 223 242 246 248 259 258 249 257 255 255 253 239 230 227 222 255 274 265 277 282 288 299 299 294 291 288
177 173 179 177 175 185 201 207 202 208 212 213 215 222 236 241 235 232 247 249 246 254 257 254 262 261 254 254 246 246 244 230 240 272 279 278 273 283 288 293 294 292 287
170 173 178 183 187 199 207 207 205 210 217 218 216 228 241 246 244 241 241 248 247 249 250 248 255 254 259 256 251 253 254 253 236 254 273 272 275 281 289 290 291 290 291
172 177 188 196 198 203 205 207 209 211 218 225 227 234 242 248 250 250 246 249 251 252 249 248 251 248 253 258 258 255 255 259 253 254 265 270 270 275 271 281 291 289 292
175 187 201 201 197 198 205 211 212 215 224 225 231 242 246 246 245 243 244 247 248 257 259 255 255 255 253 251 254 252 250 254 258 257 264 267 270 271 269 269 281 292 287
183 197 199 192 194 202 209 209 210 219 223 221 229 238 247 249 253 253 247 248 250 254 263 266 266 265 266 268 266 261 247 246 251 253 259 260 265 265 266 264 270 283 286
189 195 193 193 199 206 206 203 213 218 218 225 233 236 246 255 260 262 257 246 247 251 254 261 266 264 263 267 274 277 270 258 246 246 254 258 262 259 257 264 257 255 261
190 196 195 194 203 204 200 209 215 211 217 227 235 237 246 257 258 259 261 252 250 252 251 250 255 264 263 257 267 273 273 269 258 249 247 255 258 258 249 255 264 268 266
197 202 198 194 200 199 205 213 210 206 220 225 232 235 242 258 260 259 256 247 252 259 256 251 247 255 259 254 255 265 275 276 266 253 246 252 255 255 248 248 250 253 266
204 204 196 192 196 202 210 211 203 206 222 227 238 238 239 252 260 259 250 235 251 260 262 255 246 246 253 251 247 252 265 273 278 281 273 268 265 261 250 237 239 246 256
196 185 184 191 198 203 204 202 202 211 224 232 244 250 246 249 258 259 250 225 236 251 258 259 253 244 247 250 243 242 250 261 274 274 275 275 271 263 254 241 232 233 242
162 176 189 195 199 200 198 205 203 208 226 240 248 261 258 252 249 255 252 238 229 237 250 254 254 252 251 253 250 248 252 257 262 264 266 267 265 263 258 250 241 238 240
160 184 195 197 202 195 197 208 209 210 226 241 243 255 265 262 255 250 253 251 239 233 245 247 251 256 260 260 254 254 256 253 250 253 257 259 258 261 262 259 253 245 246
165 186 189 195 207 209 210 214 216 220 229 239 245 252 260 265 265 259 252 253 249 242 247 253 257 260 258 259 264 261 251 243 241 250 257 262 263 258 254 248 253 253 254
160 175 188 200 208 220 226 227 227 230 224 228 240 242 249 260 258 246 241 247 242 241 240 248 253 256 258 258 258 258 253 244 241 245 252 259 260 258 255 243 239 241 242
153 175 199 214 221 232 250 267 247 245 252 244 245 245 248 247 261 267 259 253 253 245 219 240 251 252 253 257 260 263 257 249 245 244 246 250 254 256 258 248 235 237 245
166 191 207 225 235 247 255 265 282 282 263 257 254 252 247 255 261 265 266 262 254 218 217 239 246 250 251 252 252 253 257 257 247 243 246 248 249 251 252 252 244 240 244
167 192 211 244 252 253 254 259 262 272 286 285 270 259 257 258 262 263 260 246 239 208 225 238 245 247 247 249 250 251 255 259 251 246 247 248 247 248 249 249 245 241 243
207 256 260 261 258 258 261 263 264 265 269 276 286 285 272 270 268 263 235 219 238 240 235 239 244 247 247 247 248 249 251 253 253 251 249 248 246 245 248 249 247 243 241
279 288 285 271 272 274 272 271 271 271 273 275 275 276 284 285 280 275 237 230 241 249 248 246 246 245 246 247 247 248 250 251 254 252 252 250 246 243 248 251 249 245 240
280 295 301 294 281 279 278 276 276 276 276 276 275 274 271 270 272 275 273 257 249 251 253 251 249 247 245 244 246 249 251 253 252 252 252 251 250 247 247 249 249 245 243
274 282 286 284 287 289 288 284 284 283 282 282 284 285 278 266 269 273 273 271 265 259 256 252 251 250 247 245 246 249 251 255 255 253 252 253 253 252 250 248 248 246 243
289 293 295 292 290 293 295 292 288 286 285 284 283 284 283 277 274 273 273 274 272 268 261 251 253 257 255 250 246 244 248 253 256 254 254 256 256 254 249 245 245 247 245
283 286 290 292 292 293 294 295 294 293 291 289 288 286 285 284 283 282 281 280 279 276 270 259 255 261 267 265 254 245 245 253 260 257 253 252 255 256 252 248 244 243 247
283 283 284 285 288 291 294 295 295 294 293 290 290 289 289 288 288 289 290 290 289 285 284 279 271 271 275 276 271 261 255 257 256 259 257 252 252 253 253 250 243 243 245
284 284 284 283 284 287 290 293 294 293 293 293 292 292 294 295 295 296 298 296 295 292 293 290 286 289 290 287 283 278 267 264 262 258 255 254 255 254 252 249 247 243 244